SWA2473 KAUS-KLAX

Flight info

Callsign SWA2473
Flight time N/A
Altitude 32000
Route MUCKY3 MUCKY JCT J86 ELP J50 ITEMM BXK J4 WLVRN ESTWD HLYWD1
Aircraft B738/M-SDE2E3FGHIRWXY/LB1

Departure

Time N/A
Airport Austin Bergstrom International Airport (KAUS)

Arrival

Time 2026-04-24 20:28
Airport Los Angeles International Airport (KLAX)
Time Latitude Longitude Altitude Speed Heading
2026-04-24 19:46 33.50005 -112.95503 31881 ft 403 kts 289°
2026-04-24 19:47 33.52144 -113.01525 31876 ft 403 kts 289°
2026-04-24 19:47 33.54345 -113.07700 31878 ft 403 kts 289°
2026-04-24 19:48 33.56539 -113.13850 31872 ft 403 kts 289°
2026-04-24 19:48 33.59844 -113.23127 31870 ft 403 kts 289°
2026-04-24 19:49 33.64232 -113.35487 31865 ft 402 kts 288°
2026-04-24 19:50 33.68599 -113.47832 31928 ft 401 kts 288°
2026-04-24 19:51 33.71867 -113.57103 31923 ft 402 kts 288°
2026-04-24 19:52 33.75117 -113.66353 31867 ft 402 kts 288°
2026-04-24 19:52 33.78849 -113.77003 31860 ft 403 kts 288°
2026-04-24 19:53 33.87077 -114.01228 31856 ft 404 kts 287°
2026-04-24 19:53 33.93346 -114.26828 31849 ft 397 kts 276°
2026-04-24 19:54 33.95314 -114.39879 31842 ft 397 kts 278°
2026-04-24 19:54 33.99711 -114.65989 31861 ft 397 kts 278°
2026-04-24 19:55 34.02580 -114.83336 31848 ft 397 kts 278°
2026-04-24 19:55 34.08162 -115.17494 31879 ft 397 kts 277°
2026-04-24 19:56 34.11233 -115.36550 31852 ft 397 kts 277°
2026-04-24 19:56 34.12281 -115.43093 31863 ft 397 kts 277°
2026-04-24 19:57 34.13324 -115.49634 31867 ft 397 kts 277°
2026-04-24 19:57 34.14358 -115.56139 31872 ft 398 kts 277°
2026-04-24 19:58 34.15398 -115.62700 31869 ft 398 kts 277°
2026-04-24 19:58 34.16312 -115.69277 31860 ft 395 kts 269°
2026-04-24 19:59 34.16190 -115.71935 31878 ft 393 kts 262°
2026-04-24 20:02 34.15587 -115.77551 31936 ft 400 kts 262°
2026-04-24 20:03 34.14906 -115.84290 31954 ft 406 kts 263°
2026-04-24 20:03 34.14248 -115.91050 31991 ft 404 kts 263°
2026-04-24 20:04 34.13591 -115.97795 32018 ft 404 kts 263°
2026-04-24 20:04 34.12948 -116.04365 32037 ft 405 kts 263°
2026-04-24 20:05 34.12288 -116.11077 32043 ft 406 kts 263°
2026-04-24 20:05 34.11620 -116.17845 32046 ft 406 kts 263°
2026-04-24 20:06 34.10947 -116.24636 32037 ft 408 kts 263°
2026-04-24 20:06 34.10605 -116.28067 31427 ft 414 kts 263°
2026-04-24 20:06 34.10257 -116.31505 30681 ft 413 kts 263°
2026-04-24 20:06 34.09894 -116.34941 29836 ft 413 kts 263°
2026-04-24 20:07 34.09649 -116.37222 29167 ft 414 kts 263°
2026-04-24 20:07 34.09151 -116.41833 27848 ft 414 kts 263°
2026-04-24 20:07 34.08780 -116.45268 27237 ft 407 kts 263°
2026-04-24 20:07 34.08419 -116.48613 27066 ft 406 kts 263°
2026-04-24 20:08 34.08050 -116.52046 26921 ft 418 kts 263°
2026-04-24 20:08 34.07670 -116.55570 26731 ft 428 kts 263°
2026-04-24 20:08 34.07286 -116.59110 26515 ft 432 kts 263°
2026-04-24 20:08 34.06926 -116.62710 25795 ft 431 kts 264°
2026-04-24 20:09 34.06596 -116.66292 25236 ft 429 kts 264°
2026-04-24 20:09 34.06271 -116.69856 24671 ft 424 kts 264°
2026-04-24 20:09 34.05953 -116.73363 24115 ft 415 kts 264°
2026-04-24 20:09 34.05643 -116.76777 23562 ft 406 kts 264°
2026-04-24 20:10 34.05330 -116.80076 23461 ft 384 kts 264°
2026-04-24 20:10 34.05038 -116.83216 22988 ft 370 kts 264°
2026-04-24 20:10 34.04758 -116.86267 22489 ft 363 kts 264°
2026-04-24 20:10 34.04473 -116.89273 22070 ft 356 kts 264°
2026-04-24 20:11 34.04128 -116.92161 21983 ft 337 kts 262°
2026-04-24 20:11 34.03758 -116.94867 21937 ft 316 kts 262°
2026-04-24 20:11 34.03414 -116.97394 21830 ft 300 kts 262°
2026-04-24 20:11 34.03079 -116.99932 21063 ft 312 kts 262°
2026-04-24 20:12 34.02756 -117.02410 20332 ft 322 kts 262°
2026-04-24 20:12 34.02420 -117.05093 19793 ft 324 kts 263°
2026-04-24 20:12 34.02103 -117.07774 19397 ft 321 kts 263°
2026-04-24 20:12 34.01791 -117.10446 18945 ft 320 kts 263°
2026-04-24 20:13 34.01485 -117.13054 18575 ft 316 kts 263°
2026-04-24 20:13 34.01179 -117.15643 17944 ft 311 kts 263°
2026-04-24 20:13 34.00872 -117.18224 17357 ft 310 kts 263°
2026-04-24 20:13 34.00566 -117.20791 17170 ft 308 kts 263°
2026-04-24 20:14 34.00263 -117.23332 16653 ft 306 kts 263°
2026-04-24 20:14 33.99959 -117.25867 16006 ft 305 kts 263°
2026-04-24 20:14 33.99655 -117.28408 15430 ft 305 kts 263°
2026-04-24 20:14 33.99352 -117.30930 14994 ft 303 kts 263°
2026-04-24 20:15 33.99055 -117.33438 14544 ft 302 kts 263°
2026-04-24 20:15 33.98759 -117.35960 14150 ft 307 kts 263°
2026-04-24 20:15 33.98460 -117.38518 13708 ft 309 kts 263°
2026-04-24 20:15 33.98159 -117.41085 13257 ft 309 kts 263°
2026-04-24 20:16 33.97857 -117.43645 12821 ft 308 kts 263°
2026-04-24 20:16 33.97557 -117.46178 12570 ft 300 kts 263°
2026-04-24 20:16 33.97337 -117.48648 12414 ft 295 kts 271°
2026-04-24 20:16 33.97706 -117.51082 12070 ft 297 kts 285°
2026-04-24 20:17 33.98292 -117.53484 11693 ft 301 kts 285°
2026-04-24 20:17 33.99487 -117.58387 10908 ft 308 kts 285°
2026-04-24 20:17 34.00074 -117.60840 10531 ft 307 kts 285°
2026-04-24 20:18 34.00465 -117.62487 10447 ft 299 kts 285°
2026-04-24 20:18 34.01210 -117.65643 10253 ft 293 kts 285°
2026-04-24 20:18 34.01765 -117.68003 10134 ft 295 kts 285°
2026-04-24 20:18 34.02172 -117.70444 9919 ft 301 kts 271°
2026-04-24 20:19 34.01969 -117.72963 9607 ft 303 kts 263°
2026-04-24 20:19 34.01690 -117.75490 9251 ft 303 kts 263°
2026-04-24 20:19 34.01423 -117.78003 8889 ft 301 kts 263°
2026-04-24 20:19 34.01172 -117.80491 8590 ft 298 kts 264°
2026-04-24 20:20 34.00927 -117.82977 8206 ft 298 kts 264°
2026-04-24 20:20 34.00685 -117.85454 7864 ft 296 kts 264°
2026-04-24 20:20 34.00445 -117.87906 7536 ft 294 kts 264°
2026-04-24 20:20 34.00206 -117.90336 7203 ft 290 kts 264°
2026-04-24 20:21 33.99973 -117.92717 6882 ft 281 kts 264°
2026-04-24 20:21 33.99747 -117.95025 6563 ft 272 kts 264°
2026-04-24 20:21 33.99527 -117.97262 6261 ft 267 kts 264°
2026-04-24 20:21 33.99323 -117.99473 5952 ft 265 kts 265°
2026-04-24 20:22 33.99172 -118.01572 5624 ft 270 kts 265°
2026-04-24 20:22 33.98977 -118.03837 5285 ft 273 kts 264°
2026-04-24 20:22 33.98748 -118.06126 4920 ft 276 kts 263°
2026-04-24 20:22 33.98505 -118.08427 4550 ft 278 kts 263°
2026-04-24 20:23 33.98261 -118.10740 4185 ft 279 kts 263°
2026-04-24 20:23 33.98020 -118.13027 4049 ft 270 kts 264°
2026-04-24 20:23 33.97790 -118.15221 4013 ft 258 kts 263°
2026-04-24 20:23 33.97568 -118.17347 3807 ft 254 kts 263°
2026-04-24 20:24 33.97424 -118.18735 3603 ft 249 kts 263°
2026-04-24 20:24 33.97147 -118.21395 3200 ft 231 kts 263°
2026-04-24 20:24 33.96956 -118.23233 2905 ft 217 kts 263°
2026-04-24 20:24 33.96771 -118.25038 2614 ft 209 kts 262°
2026-04-24 20:25 33.96596 -118.26717 2337 ft 199 kts 261°
2026-04-24 20:25 33.96431 -118.28321 2095 ft 181 kts 262°
2026-04-24 20:25 33.96283 -118.29765 1871 ft 172 kts 261°
2026-04-24 20:25 33.96131 -118.31220 1641 ft 178 kts 261°
2026-04-24 20:26 33.95984 -118.32651 1411 ft 163 kts 260°
2026-04-24 20:26 33.95850 -118.33939 1278 ft 145 kts 262°
2026-04-24 20:26 33.95755 -118.35076 1110 ft 131 kts 261°
2026-04-24 20:26 33.95632 -118.36183 888 ft 136 kts 261°
2026-04-24 20:27 33.95506 -118.37333 678 ft 140 kts 262°
2026-04-24 20:27 33.95382 -118.38477 462 ft 133 kts 262°
2026-04-24 20:27 33.95275 -118.39572 264 ft 130 kts 265°
2026-04-24 20:27 33.95165 -118.40645 133 ft 125 kts 264°
2026-04-24 20:28 33.95070 -118.41571 125 ft 96 kts 263°
2026-04-24 20:28 33.95004 -118.42209 123 ft 39 kts 263°
2026-04-24 20:28 33.94940 -118.42536 124 ft 39 kts 241°
2026-04-24 20:28 33.94867 -118.42660 122 ft 17 kts 230°
2026-04-24 20:29 33.94811 -118.42723 124 ft 17 kts 220°
2026-04-24 20:29 33.94675 -118.42780 124 ft 0 kts 174°
2026-04-24 20:29 33.94639 -118.42756 122 ft 11 kts 122°
2026-04-24 20:29 33.94644 -118.42615 125 ft 24 kts 84°
2026-04-24 20:30 33.94669 -118.42365 125 ft 36 kts 83°
2026-04-24 20:30 33.94701 -118.42075 122 ft 33 kts 82°
2026-04-24 20:30 33.94717 -118.41876 123 ft 9 kts 91°
2026-04-24 20:30 33.94729 -118.41795 124 ft 16 kts 80°
2026-04-24 20:31 33.94747 -118.41616 120 ft 19 kts 83°
2026-04-24 20:31 33.94766 -118.41449 123 ft 21 kts 78°
2026-04-24 20:31 33.94794 -118.41283 124 ft 20 kts 81°
2026-04-24 20:31 33.94812 -118.41120 125 ft 19 kts 84°
2026-04-24 20:32 33.94828 -118.40962 122 ft 19 kts 83°
2026-04-24 20:32 33.94843 -118.40808 125 ft 18 kts 84°
2026-04-24 20:32 33.94859 -118.40660 125 ft 17 kts 83°
2026-04-24 20:32 33.94873 -118.40517 125 ft 17 kts 83°
2026-04-24 20:33 33.94888 -118.40380 125 ft 16 kts 82°
2026-04-24 20:33 33.94900 -118.40248 123 ft 16 kts 84°
2026-04-24 20:33 33.94911 -118.40143 125 ft 7 kts 82°
2026-04-24 20:33 33.94897 -118.40090 122 ft 7 kts 144°
2026-04-24 20:34 33.94851 -118.40056 123 ft 11 kts 121°
2026-04-24 20:34 33.94798 -118.40005 122 ft 8 kts 187°
2026-04-24 20:34 33.94787 -118.40017 123 ft 1 kts 238°
2026-04-24 20:34 33.94772 -118.40050 122 ft 6 kts 243°
2026-04-24 20:35 33.94767 -118.40063 123 ft 1 kts 245°
2026-04-24 20:35 33.94766 -118.40064 123 ft 0 kts 245°